Location: Cuzcurrita-R�o Tir�n
(42.5415°N, 2.9642°W)
Time: 01:49:23
(UTC+00:00)

Cosmos 1726 Rocket - Pass Details

Date: 17 January 2021
Orbit: 604 x 628 km, 82.5° (Epoch: 08 March)

Event Time Altitude Azimuth Distance (km) Brightness Sun altitude
Rises 18:26:29 0° 353° (N) 2,878 6.9 -14.5°
Reaches altitude 10° 18:28:43 10° 355° (N) 1,973 6.0 -14.9°
Maximum altitude 18:33:05 77° 81° (E) 635 3.4 -15.7°
Drops below altitude 10° 18:37:27 10° 168° (SSE) 1,972 6.2 -16.5°
Sets 18:39:40 0° 170° (S) 2,877 7.0 -16.9°
